﻿測定場所 (Monitoring sites),日付 (Measurement date),時間 (Measurement time),線量率 最大値 (max) μGy/h,線量率 最小値 (min) μGy/h,線量率 平均値 (average) μGy/h,
足立 (Adachi),2012-08-05,23:01～24:00,0.0712,0.0624,0.0670,
足立 (Adachi),2012-08-05,22:01～23:00,0.0700,0.0632,0.0668,
足立 (Adachi),2012-08-05,21:01～22:00,0.0698,0.0640,0.0666,
足立 (Adachi),2012-08-05,20:01～21:00,0.0713,0.0629,0.0669,
足立 (Adachi),2012-08-05,19:01～20:00,0.0699,0.0632,0.0665,
足立 (Adachi),2012-08-05,18:01～19:00,0.0715,0.0630,0.0667,
足立 (Adachi),2012-08-05,17:01～18:00,0.0709,0.0643,0.0667,
足立 (Adachi),2012-08-05,16:01～17:00,0.0715,0.0629,0.0666,
足立 (Adachi),2012-08-05,15:01～16:00,0.0703,0.0623,0.0661,
足立 (Adachi),2012-08-05,14:01～15:00,0.0696,0.0623,0.0663,
足立 (Adachi),2012-08-05,13:01～14:00,0.0702,0.0629,0.0668,
足立 (Adachi),2012-08-05,12:01～13:00,0.0712,0.0620,0.0660,
足立 (Adachi),2012-08-05,11:01～12:00,0.0692,0.0628,0.0660,
足立 (Adachi),2012-08-05,10:01～11:00,0.0689,0.0615,0.0654,
足立 (Adachi),2012-08-05,09:01～10:00,0.0717,0.0618,0.0656,
足立 (Adachi),2012-08-05,08:01～09:00,0.0701,0.0606,0.0653,
足立 (Adachi),2012-08-05,07:01～08:00,0.0686,0.0614,0.0654,
足立 (Adachi),2012-08-05,06:01～07:00,0.0676,0.0604,0.0650,
足立 (Adachi),2012-08-05,05:01～06:00,0.0705,0.0615,0.0650,
足立 (Adachi),2012-08-05,04:01～05:00,0.0672,0.0620,0.0648,
足立 (Adachi),2012-08-05,03:01～04:00,0.0683,0.0613,0.0651,
足立 (Adachi),2012-08-05,02:01～03:00,0.0684,0.0610,0.0651,
足立 (Adachi),2012-08-05,01:01～02:00,0.0692,0.0622,0.0654,
足立 (Adachi),2012-08-05,00:01～01:00,0.0688,0.0626,0.0653,
足立 (Adachi),2012-08-04,23:01～24:00,0.0683,0.0612,0.0652,
足立 (Adachi),2012-08-04,22:01～23:00,0.0698,0.0622,0.0655,
足立 (Adachi),2012-08-04,21:01～22:00,0.0688,0.0629,0.0654,
足立 (Adachi),2012-08-04,20:01～21:00,0.0689,0.0609,0.0654,
足立 (Adachi),2012-08-04,19:01～20:00,0.0684,0.0619,0.0649,
足立 (Adachi),2012-08-04,18:01～19:00,0.0687,0.0618,0.0648,
足立 (Adachi),2012-08-04,17:01～18:00,0.0688,0.0603,0.0650,
足立 (Adachi),2012-08-04,16:01～17:00,0.0696,0.0610,0.0649,
足立 (Adachi),2012-08-04,15:01～16:00,0.0705,0.0630,0.0665,
足立 (Adachi),2012-08-04,14:01～15:00,0.0695,0.0621,0.0655,
足立 (Adachi),2012-08-04,13:01～14:00,0.0695,0.0631,0.0660,
足立 (Adachi),2012-08-04,12:01～13:00,0.0697,0.0617,0.0657,
足立 (Adachi),2012-08-04,11:01～12:00,0.0697,0.0616,0.0660,
足立 (Adachi),2012-08-04,10:01～11:00,0.0686,0.0620,0.0661,
足立 (Adachi),2012-08-04,09:01～10:00,0.0682,0.0601,0.0645,
足立 (Adachi),2012-08-04,08:01～09:00,0.0671,0.0579,0.0632,
足立 (Adachi),2012-08-04,07:01～08:00,0.0666,0.0594,0.0633,
足立 (Adachi),2012-08-04,06:01～07:00,0.0665,0.0597,0.0626,
足立 (Adachi),2012-08-04,05:01～06:00,0.0670,0.0601,0.0630,
足立 (Adachi),2012-08-04,04:01～05:00,0.0715,0.0594,0.0652,
足立 (Adachi),2012-08-04,03:01～04:00,0.0711,0.0606,0.0662,
足立 (Adachi),2012-08-04,02:01～03:00,0.0701,0.0633,0.0665,
足立 (Adachi),2012-08-04,01:01～02:00,0.0713,0.0627,0.0667,
足立 (Adachi),2012-08-04,00:01～01:00,0.0693,0.0632,0.0662,
足立 (Adachi),2012-08-03,23:01～24:00,0.0703,0.0632,0.0663,
足立 (Adachi),2012-08-03,22:01～23:00,0.0693,0.0630,0.0666,
足立 (Adachi),2012-08-03,21:01～22:00,0.0707,0.0626,0.0666,
足立 (Adachi),2012-08-03,20:01～21:00,0.0704,0.0627,0.0666,
足立 (Adachi),2012-08-03,19:01～20:00,0.0715,0.0632,0.0665,
足立 (Adachi),2012-08-03,18:01～19:00,0.0694,0.0625,0.0657,
足立 (Adachi),2012-08-03,17:01～18:00,0.0710,0.0619,0.0660,
足立 (Adachi),2012-08-03,16:01～17:00,0.0701,0.0627,0.0665,
足立 (Adachi),2012-08-03,15:01～16:00,0.0711,0.0628,0.0661,
足立 (Adachi),2012-08-03,14:01～15:00,0.0696,0.0617,0.0655,
足立 (Adachi),2012-08-03,13:01～14:00,0.0697,0.0631,0.0659,
足立 (Adachi),2012-08-03,12:01～13:00,0.0713,0.0611,0.0660,
足立 (Adachi),2012-08-03,11:01～12:00,0.0699,0.0606,0.0662,
足立 (Adachi),2012-08-03,10:01～11:00,0.0724,0.0617,0.0657,
足立 (Adachi),2012-08-03,09:01～10:00,0.0719,0.0623,0.0656,
足立 (Adachi),2012-08-03,08:01～09:00,0.0691,0.0572,0.0648,
足立 (Adachi),2012-08-03,07:01～08:00,0.0676,0.0588,0.0628,
足立 (Adachi),2012-08-03,06:01～07:00,0.0696,0.0594,0.0642,
足立 (Adachi),2012-08-03,05:01～06:00,0.0692,0.0611,0.0656,
足立 (Adachi),2012-08-03,04:01～05:00,0.0685,0.0614,0.0654,
足立 (Adachi),2012-08-03,03:01～04:00,0.0691,0.0625,0.0657,
足立 (Adachi),2012-08-03,02:01～03:00,0.0701,0.0617,0.0662,
足立 (Adachi),2012-08-03,01:01～02:00,0.0715,0.0620,0.0661,
足立 (Adachi),2012-08-03,00:01～01:00,0.0689,0.0625,0.0658,
足立 (Adachi),2012-08-02,23:01～24:00,0.0692,0.0625,0.0663,
足立 (Adachi),2012-08-02,22:01～23:00,0.0716,0.0628,0.0666,
足立 (Adachi),2012-08-02,21:01～22:00,0.0702,0.0622,0.0660,
足立 (Adachi),2012-08-02,20:01～21:00,0.0692,0.0610,0.0658,
足立 (Adachi),2012-08-02,19:01～20:00,0.0695,0.0626,0.0660,
足立 (Adachi),2012-08-02,18:01～19:00,0.0691,0.0628,0.0662,
足立 (Adachi),2012-08-02,17:01～18:00,0.0713,0.0621,0.0662,
足立 (Adachi),2012-08-02,16:01～17:00,0.0697,0.0629,0.0663,
足立 (Adachi),2012-08-02,15:01～16:00,0.0694,0.0623,0.0662,
足立 (Adachi),2012-08-02,14:01～15:00,0.0698,0.0619,0.0663,
足立 (Adachi),2012-08-02,13:01～14:00,0.0715,0.0620,0.0663,
足立 (Adachi),2012-08-02,12:01～13:00,0.0708,0.0618,0.0655,
足立 (Adachi),2012-08-02,11:01～12:00,0.0697,0.0621,0.0656,
足立 (Adachi),2012-08-02,10:01～11:00,0.0687,0.0611,0.0653,
足立 (Adachi),2012-08-02,09:01～10:00,0.0685,0.0623,0.0655,
足立 (Adachi),2012-08-02,08:01～09:00,0.0698,0.0611,0.0651,
足立 (Adachi),2012-08-02,07:01～08:00,0.0692,0.0626,0.0652,
足立 (Adachi),2012-08-02,06:01～07:00,0.0686,0.0611,0.0647,
足立 (Adachi),2012-08-02,05:01～06:00,0.0678,0.0585,0.0626,
足立 (Adachi),2012-08-02,04:01～05:00,0.0683,0.0616,0.0650,
足立 (Adachi),2012-08-02,03:01～04:00,0.0704,0.0621,0.0659,
足立 (Adachi),2012-08-02,02:01～03:00,0.0694,0.0622,0.0660,
足立 (Adachi),2012-08-02,01:01～02:00,0.0706,0.0625,0.0656,
足立 (Adachi),2012-08-02,00:01～01:00,0.0688,0.0618,0.0658,
足立 (Adachi),2012-08-01,23:01～24:00,0.0696,0.0622,0.0662,
足立 (Adachi),2012-08-01,22:01～23:00,0.0694,0.0630,0.0663,
足立 (Adachi),2012-08-01,21:01～22:00,0.0727,0.0632,0.0664,
足立 (Adachi),2012-08-01,20:01～21:00,0.0705,0.0627,0.0664,
足立 (Adachi),2012-08-01,19:01～20:00,0.0705,0.0624,0.0661,
足立 (Adachi),2012-08-01,18:01～19:00,0.0703,0.0632,0.0659,
足立 (Adachi),2012-08-01,17:01～18:00,0.0700,0.0609,0.0654,
足立 (Adachi),2012-08-01,16:01～17:00,0.0685,0.0615,0.0656,
足立 (Adachi),2012-08-01,15:01～16:00,0.0694,0.0632,0.0660,
足立 (Adachi),2012-08-01,14:01～15:00,0.0697,0.0598,0.0655,
足立 (Adachi),2012-08-01,13:01～14:00,0.0696,0.0622,0.0662,
足立 (Adachi),2012-08-01,12:01～13:00,0.0684,0.0627,0.0657,
足立 (Adachi),2012-08-01,11:01～12:00,0.0689,0.0622,0.0656,
足立 (Adachi),2012-08-01,10:01～11:00,0.0701,0.0626,0.0656,
足立 (Adachi),2012-08-01,09:01～10:00,0.0695,0.0601,0.0644,
足立 (Adachi),2012-08-01,08:01～09:00,0.0688,0.0606,0.0647,
足立 (Adachi),2012-08-01,07:01～08:00,0.0669,0.0605,0.0639,
足立 (Adachi),2012-08-01,06:01～07:00,0.0663,0.0601,0.0631,
足立 (Adachi),2012-08-01,05:01～06:00,0.0676,0.0603,0.0642,
足立 (Adachi),2012-08-01,04:01～05:00,0.0692,0.0603,0.0649,
足立 (Adachi),2012-08-01,03:01～04:00,0.0698,0.0604,0.0652,
足立 (Adachi),2012-08-01,02:01～03:00,0.0690,0.0624,0.0657,
足立 (Adachi),2012-08-01,01:01～02:00,0.0698,0.0626,0.0664,
足立 (Adachi),2012-08-01,00:01～01:00,0.0698,0.0630,0.0663,
足立 (Adachi),2012-07-31,23:01～24:00,0.0699,0.0631,0.0663,
足立 (Adachi),2012-07-31,22:01～23:00,0.0694,0.0623,0.0661,
足立 (Adachi),2012-07-31,21:01～22:00,0.0689,0.0621,0.0661,
足立 (Adachi),2012-07-31,20:01～21:00,0.0700,0.0622,0.0663,
足立 (Adachi),2012-07-31,19:01～20:00,0.0700,0.0624,0.0660,
足立 (Adachi),2012-07-31,18:01～19:00,0.0704,0.0614,0.0661,
足立 (Adachi),2012-07-31,17:01～18:00,0.0685,0.0629,0.0658,
足立 (Adachi),2012-07-31,16:01～17:00,0.0697,0.0619,0.0658,
足立 (Adachi),2012-07-31,15:01～16:00,0.0699,0.0608,0.0659,
足立 (Adachi),2012-07-31,14:01～15:00,0.0700,0.0612,0.0659,
足立 (Adachi),2012-07-31,13:01～14:00,0.0712,0.0618,0.0657,
足立 (Adachi),2012-07-31,12:01～13:00,0.0692,0.0615,0.0654,
足立 (Adachi),2012-07-31,11:01～12:00,0.0710,0.0623,0.0659,
足立 (Adachi),2012-07-31,10:01～11:00,0.0689,0.0626,0.0655,
足立 (Adachi),2012-07-31,09:01～10:00,0.0691,0.0610,0.0651,
足立 (Adachi),2012-07-31,08:01～09:00,0.0683,0.0603,0.0650,
足立 (Adachi),2012-07-31,07:01～08:00,0.0694,0.0611,0.0648,
足立 (Adachi),2012-07-31,06:01～07:00,0.0684,0.0595,0.0645,
足立 (Adachi),2012-07-31,05:01～06:00,0.0681,0.0594,0.0650,
足立 (Adachi),2012-07-31,04:01～05:00,0.0694,0.0627,0.0654,
足立 (Adachi),2012-07-31,03:01～04:00,0.0690,0.0617,0.0647,
足立 (Adachi),2012-07-31,02:01～03:00,0.0709,0.0612,0.0648,
足立 (Adachi),2012-07-31,01:01～02:00,0.0684,0.0621,0.0649,
足立 (Adachi),2012-07-31,00:01～01:00,0.0691,0.0614,0.0650,
足立 (Adachi),2012-07-30,23:01～24:00,0.0712,0.0607,0.0660,
足立 (Adachi),2012-07-30,22:01～23:00,0.0691,0.0625,0.0658,
足立 (Adachi),2012-07-30,21:01～22:00,0.0706,0.0626,0.0658,
足立 (Adachi),2012-07-30,20:01～21:00,0.0692,0.0631,0.0657,
足立 (Adachi),2012-07-30,19:01～20:00,0.0695,0.0609,0.0658,
足立 (Adachi),2012-07-30,18:01～19:00,0.0707,0.0622,0.0657,
足立 (Adachi),2012-07-30,17:01～18:00,0.0700,0.0621,0.0656,
足立 (Adachi),2012-07-30,16:01～17:00,0.0706,0.0609,0.0658,
足立 (Adachi),2012-07-30,15:01～16:00,0.0703,0.0624,0.0658,
足立 (Adachi),2012-07-30,14:01～15:00,0.0698,0.0622,0.0656,
足立 (Adachi),2012-07-30,13:01～14:00,0.0684,0.0622,0.0654,
足立 (Adachi),2012-07-30,12:01～13:00,0.0681,0.0611,0.0647,
足立 (Adachi),2012-07-30,11:01～12:00,0.0697,0.0610,0.0654,
足立 (Adachi),2012-07-30,10:01～11:00,0.0699,0.0601,0.0652,
足立 (Adachi),2012-07-30,09:01～10:00,0.0693,0.0613,0.0651,
足立 (Adachi),2012-07-30,08:01～09:00,0.0688,0.0600,0.0648,
足立 (Adachi),2012-07-30,07:01～08:00,0.0698,0.0610,0.0649,
足立 (Adachi),2012-07-30,06:01～07:00,0.0674,0.0602,0.0642,
足立 (Adachi),2012-07-30,05:01～06:00,0.0679,0.0608,0.0646,
足立 (Adachi),2012-07-30,04:01～05:00,0.0693,0.0617,0.0651,
足立 (Adachi),2012-07-30,03:01～04:00,0.0694,0.0625,0.0655,
足立 (Adachi),2012-07-30,02:01～03:00,0.0684,0.0624,0.0658,
足立 (Adachi),2012-07-30,01:01～02:00,0.0682,0.0628,0.0657,
足立 (Adachi),2012-07-30,00:01～01:00,0.0710,0.0626,0.0656,
